Location: Riddle Hill
(39.7867°N, 89.7645°W)
Time: 20:40:31
(UTC+00:00)

ATLAS 2AS CENTAUR R/B - Pass Details

Date: 29 October 2020
Orbit: 939 x 1273 km, 63.7° (Epoch: 23 November)

Event Time Altitude Azimuth Distance (km) Brightness Sun altitude
Rises 23:35:32 0° 328° (NNW) 4,175 6.1 -7.5°
Reaches altitude 10° 23:39:40 10° 347° (NNW) 3,155 5.2 -8.2°
Maximum altitude 23:44:21 17° 26° (NNE) 2,584 4.4 -9.1°
Enters shadow 23:48:38 11° 64° (ENE) 2,968 4.4 -9.9°
